[[{"header":{"parameterUnit":"m.s-1","parameterCategory":1,"la1":30.2991,"la2":30.254,"lo1":-89.0895,"lo2":-89.0444,"dy":0.0017,"dx":0.0017,"nx":28,"ny":28,"refTime":"2025-04-09T21:00:00:Z","depth":0,"parameterNumber":2,"parameterNumberName":"U-component_of_WINDS"},"data":[0,0,0,0,0,0,0,0,0,0,0,0,0,0,0,0,0,0,0,0,0,0,0,0,0,0,0,0,0,0,0,0,0,0,0,0,0,0,0,0,0,0,0,0,0,0,0,0,0,0,0,0,0,0,0,0,0,0,2.8183,2.8184,0,2.8263,2.8264,2.8265,2.8275,2.8274,2.8274,2.8273,2.8359,2.8362,2.8365,0,0,0,0,0,0,0,0,0,0,0,0,0,2.8042,2.8045,2.8183,2.8184,2.8185,2.8263,2.8264,2.8265,2.8275,2.8274,2.8273,2.8273,2.8358,2.8362,2.8366,0,0,0,0,0,0,0,0,0,0,0,0,0,2.8111,2.8045,2.8183,2.8199,2.8201,2.8263,2.8264,2.8266,2.8276,2.8274,2.8273,2.8272,2.8357,2.8362,2.8366,2.8418,0,0,2.838,2.8382,0,0,0,0,0,0,0,0,2.8107,2.8116,2.8196,2.8198,2.8201,2.8258,2.8246,2.8317,2.8276,2.8248,2.8273,2.8272,2.8327,2.8334,2.8352,2.8422,2.8426,2.838,2.8383,2.8385,2.8386,0,0,0,0,0,0,0,2.8102,2.8113,2.8215,2.8197,2.82,2.8204,2.8212,2.826,2.8293,2.825,2.8251,2.826,2.8328,2.8347,2.8354,2.8427,2.838,2.8384,2.8387,2.8389,2.8545,2.8547,0,0,0,0,0,0,2.8094,2.8109,2.8212,2.8217,2.815,2.8207,2.8217,2.8241,2.8293,2.8299,2.8261,2.826,2.834,2.8348,2.8357,2.8422,2.8385,2.8389,2.8392,2.8544,2.8546,2.8547,0,0,0,0,0,0,2.8091,2.8103,2.8209,2.8163,2.8177,2.8211,2.8238,2.8243,2.8262,2.8301,2.8307,2.8274,2.8339,2.835,2.8403,2.8425,2.8391,2.8396,2.8542,2.8545,2.8547,2.8551,0,0,0,0,0,0,2.8087,2.8102,2.8121,2.8164,2.8179,2.8252,2.8239,2.8246,2.827,2.8269,2.8315,2.8321,2.8339,2.8396,2.8407,2.8431,2.8399,2.8541,2.8543,2.8546,2.8549,2.8553,2.8557,0,0,0,0,0,2.8082,2.812,2.8122,2.8134,2.8204,2.8253,2.8263,2.8281,2.8271,2.8292,2.8316,2.832,2.842,2.8401,2.8414,2.8439,2.8539,2.8543,2.8546,2.8548,2.8553,2.8557,0,0,0,0,0,0,2.808,2.8126,2.8128,2.8181,2.8213,2.8255,2.8281,2.8286,2.8323,2.8321,2.8344,2.8354,2.8406,2.8428,2.8405,2.8493,2.8479,2.8485,2.8476,2.8481,2.8485,2.8479,2.8403,0,0,0,0,0,2.8086,2.8121,2.8159,2.8202,2.8218,2.8247,2.8269,2.8281,2.8315,2.833,2.8358,2.8393,2.8432,2.8458,2.8496,2.8553,2.8563,2.8576,2.858,2.8583,2.8588,2.862,2.8627,2.8558,2.8558,2.8558,0,0,2.8098,2.8127,2.8148,2.8203,2.8229,2.8266,2.8258,2.8298,2.8326,2.8336,2.8387,2.8409,2.845,2.8504,2.853,2.8524,2.8609,2.8587,2.8589,2.8593,2.8624,2.8631,2.8637,2.856,2.856,2.8559,0,0,2.814,2.8165,2.8204,2.823,2.8269,2.8288,2.8297,2.8339,2.8353,2.8404,2.8413,2.8448,2.8515,2.8543,2.8567,2.862,2.8625,2.8632,2.8651,2.8683,2.8688,2.8693,2.8713,2.8719,2.8637,2.8637,2.8637,0,2.815,2.8206,2.8223,2.8263,2.8287,2.8296,2.8337,2.8362,2.8412,2.8429,2.8422,2.8507,2.8535,2.8596,2.8609,2.8628,2.864,2.8627,2.8686,2.8691,2.8696,2.8715,2.8722,2.8637,2.8637,2.8637,2.8637,0,2.8217,2.8256,2.8283,2.833,2.8357,2.8397,2.8422,2.8448,2.8457,2.8477,2.853,2.8563,2.8609,2.8625,2.8635,2.8688,2.8684,2.8681,2.8668,2.8703,2.8721,2.8728,2.8638,2.8638,2.8638,2.8638,0,0,2.8261,2.8317,2.8326,2.8348,2.8392,2.8423,2.8464,2.8507,2.853,2.8564,2.86,2.8657,2.8654,2.8681,2.8694,2.8722,2.8762,2.8716,2.8717,2.8724,2.8825,2.8827,2.8835,2.8766,2.8767,2.8768,2.8822,0,2.8308,2.8379,2.8396,2.8458,2.8495,2.8504,2.854,2.8571,2.8591,2.8626,2.8649,2.8689,2.8682,2.8699,2.8726,2.8751,2.8783,2.8748,2.8801,2.8802,2.879,2.8845,2.8847,2.8896,2.8829,2.883,2.8831,0,2.8373,2.8407,2.8472,2.8512,2.8528,2.856,2.8601,2.8634,2.8671,2.8684,2.8713,2.8724,2.8768,2.8752,2.8815,2.879,2.8813,2.8829,2.8831,2.8837,2.8819,2.8853,2.8912,2.8919,2.8842,2.8841,2.8841,0,2.8398,2.8462,2.8509,2.8527,2.8575,2.8597,2.8618,2.8654,2.8679,2.8716,2.8732,2.8774,2.8798,2.8831,2.8853,2.8839,2.8914,2.8899,2.8927,2.8926,2.8942,2.8941,2.9006,2.8956,2.8956,2.8956,2.8955,0,2.845,2.849,2.8521,2.855,2.8595,2.8616,2.866,2.8682,2.8713,2.8748,2.8759,2.8791,2.8818,2.8855,2.8873,2.8922,2.8933,2.8945,2.895,2.8945,2.8943,2.896,2.8958,2.8957,2.8957,2.8957,2.8956,0,2.8487,2.8509,2.8562,2.8602,2.8613,2.8645,2.868,2.871,2.873,2.8773,2.8785,2.8817,2.8861,2.8886,2.8941,2.8953,2.9008,2.9011,2.8996,2.8998,2.9024,2.9021,2.9103,2.9115,2.9055,2.9056,2.9056,0,2.8518,2.8549,2.8592,2.8616,2.8637,2.8674,2.87,2.8721,2.8747,2.8792,2.8816,2.886,2.8897,2.8966,2.8996,2.9038,2.9042,2.9068,2.9049,2.9043,2.9044,2.9042,2.9046,2.9072,2.9072,2.9072,2.9073,0,2.8572,2.8582,2.8618,2.8658,2.8687,2.872,2.8753,2.8771,2.8799,2.8828,2.8872,2.89,2.8956,2.9,2.9045,2.9069,2.9076,2.9078,2.9087,2.9083,2.9073,2.9079,2.9005,2.9077,2.9076,2.9076,2.9076,2.9076,2.8608,2.8636,2.8671,2.8711,2.8737,2.8767,2.8797,2.882,2.8857,2.8903,2.8914,2.8961,2.8998,2.9059,2.9083,2.9121,2.9117,2.9129,2.9133,2.9136,2.9137,2.9066,2.913,2.913,2.9129,2.9129,2.9129,0,2.8664,2.8686,2.8722,2.8767,2.8799,2.8801,2.8837,2.8864,2.8904,2.8938,2.8973,2.9024,2.9067,2.9099,2.9143,2.9168,2.9172,2.9179,2.9177,2.9183,2.9138,2.9126,2.9174,2.9174,2.9174,2.9174,2.9174,2.9174,2.8696,2.8743,2.8757,2.8818,2.8841,2.8886,2.8907,2.8935,2.8962,2.9018,2.9053,2.9073,2.9107,2.9153,2.9193,2.9202,2.9218,2.9224,2.9233,2.9191,2.9186,2.9181,2.9171,2.9227,2.9227,2.9276,2.9276,2.9276]},{"header":{"parameterUnit":"m.s-1","parameterCategory":1,"la1":30.2991,"la2":30.254,"lo1":-89.0895,"lo2":-89.0444,"dy":0.0017,"dx":0.0017,"nx":28,"ny":28,"refTime":"2025-04-09T21:00:00:Z","depth":0,"parameterNumber":3,"parameterNumberName":"V-component_of_WINDS"},"data":[0,0,0,0,0,0,0,0,0,0,0,0,0,0,0,0,0,0,0,0,0,0,0,0,0,0,0,0,0,0,0,0,0,0,0,0,0,0,0,0,0,0,0,0,0,0,0,0,0,0,0,0,0,0,0,0,0,0,1.3798,1.3797,0,1.3746,1.3745,1.3744,1.3719,1.3719,1.3719,1.372,1.3663,1.3662,1.366,0,0,0,0,0,0,0,0,0,0,0,0,0,1.3872,1.387,1.3798,1.3797,1.3797,1.3746,1.3745,1.3744,1.3719,1.3719,1.3719,1.372,1.3664,1.3662,1.366,0,0,0,0,0,0,0,0,0,0,0,0,0,1.3832,1.387,1.3798,1.3778,1.3776,1.3746,1.3745,1.3744,1.3719,1.3719,1.3719,1.372,1.3664,1.3662,1.366,1.3645,0,0,1.3653,1.3652,0,0,0,0,0,0,0,0,1.3834,1.3829,1.3782,1.3779,1.3777,1.3739,1.375,1.3711,1.3719,1.3741,1.372,1.372,1.3688,1.3684,1.3674,1.3642,1.364,1.3653,1.3651,1.365,1.365,0,0,0,0,0,0,0,1.3837,1.3831,1.3777,1.3781,1.3778,1.377,1.3765,1.3743,1.3715,1.3739,1.3737,1.3731,1.3687,1.3676,1.3673,1.3639,1.3653,1.3651,1.3649,1.3648,1.3588,1.3588,0,0,0,0,0,0,1.3843,1.3833,1.3779,1.3776,1.3806,1.3769,1.3763,1.3751,1.3715,1.371,1.3731,1.373,1.368,1.3675,1.367,1.3648,1.365,1.3648,1.3647,1.3589,1.3588,1.3588,0,0,0,0,0,0,1.3845,1.3839,1.3781,1.3804,1.3796,1.3768,1.3755,1.375,1.374,1.3709,1.3704,1.3726,1.368,1.3674,1.3651,1.3646,1.3647,1.3645,1.3589,1.3589,1.3588,1.3605,0,0,0,0,0,0,1.3847,1.3839,1.3835,1.3804,1.3795,1.3764,1.3755,1.3749,1.3736,1.3734,1.3703,1.3698,1.368,1.3654,1.3649,1.3643,1.3643,1.3589,1.3589,1.3588,1.3605,1.3605,1.3606,0,0,0,0,0,1.385,1.3842,1.3835,1.3828,1.3789,1.3764,1.3758,1.3738,1.3736,1.373,1.371,1.3699,1.3648,1.3652,1.3645,1.3639,1.3589,1.3589,1.3588,1.3605,1.3605,1.3606,0,0,0,0,0,0,1.3872,1.3837,1.3829,1.3811,1.379,1.3759,1.3752,1.374,1.3719,1.3719,1.3694,1.3687,1.3666,1.365,1.3656,1.3621,1.3617,1.3615,1.3632,1.3632,1.3633,1.3636,1.3641,0,0,0,0,0,1.3875,1.3859,1.3829,1.3816,1.3806,1.378,1.3769,1.3755,1.3732,1.3723,1.3702,1.3679,1.3658,1.3644,1.3623,1.3602,1.3594,1.3594,1.3595,1.3595,1.3594,1.3579,1.3578,1.3586,1.3586,1.3586,0,0,1.3881,1.386,1.3851,1.382,1.3802,1.3784,1.3773,1.3755,1.3741,1.372,1.3697,1.368,1.3653,1.3631,1.362,1.3617,1.3589,1.3595,1.3596,1.3593,1.3578,1.3577,1.3576,1.3586,1.3586,1.3586,0,0,1.3882,1.3865,1.3851,1.3833,1.3807,1.379,1.3786,1.3756,1.3744,1.3721,1.3704,1.3686,1.365,1.3631,1.3616,1.3606,1.3594,1.36,1.3602,1.3588,1.3587,1.3586,1.3581,1.3579,1.3599,1.3599,1.3599,0,1.3892,1.3866,1.3845,1.3827,1.3813,1.3793,1.3778,1.3761,1.3729,1.3718,1.3716,1.3669,1.3649,1.362,1.3618,1.3607,1.3601,1.3603,1.3589,1.3588,1.3587,1.3581,1.3579,1.3599,1.3599,1.3599,1.3599,0,1.3878,1.386,1.3851,1.382,1.3805,1.3788,1.3764,1.375,1.3737,1.3719,1.3694,1.3669,1.3641,1.3634,1.3621,1.3602,1.3601,1.3594,1.359,1.3587,1.3581,1.3579,1.3601,1.36,1.36,1.36,0,0,1.3893,1.385,1.3847,1.3831,1.3799,1.3784,1.3765,1.3738,1.3726,1.3703,1.3685,1.3654,1.3647,1.363,1.3615,1.3602,1.3593,1.3596,1.3595,1.3595,1.3567,1.3571,1.3569,1.3585,1.3584,1.3584,1.3568,0,1.3888,1.3855,1.3835,1.3809,1.379,1.377,1.3753,1.373,1.3712,1.3692,1.3672,1.365,1.3643,1.3632,1.3619,1.3597,1.3586,1.3598,1.3565,1.3564,1.3572,1.3566,1.3571,1.3558,1.3566,1.3566,1.3565,0,1.3879,1.3856,1.3829,1.3796,1.3787,1.3773,1.3745,1.3727,1.37,1.3687,1.3667,1.3651,1.3628,1.3626,1.3592,1.36,1.3585,1.3572,1.3571,1.3566,1.3564,1.356,1.3554,1.3551,1.3562,1.3562,1.3562,0,1.389,1.3853,1.3831,1.3818,1.3781,1.377,1.3754,1.3727,1.3711,1.3686,1.3675,1.3647,1.3632,1.361,1.3586,1.3587,1.3553,1.355,1.354,1.3541,1.3533,1.3534,1.3523,1.3526,1.3526,1.3526,1.3527,0,1.3886,1.3869,1.3835,1.3821,1.3801,1.3777,1.3757,1.3738,1.3714,1.3694,1.3675,1.3657,1.3627,1.3604,1.3585,1.3558,1.3552,1.3539,1.3534,1.354,1.3542,1.353,1.3529,1.3526,1.3526,1.3526,1.3526,0,1.3895,1.3872,1.3846,1.3812,1.3802,1.3789,1.3758,1.3743,1.3723,1.3699,1.3692,1.366,1.3632,1.3606,1.3569,1.3556,1.3528,1.3522,1.3538,1.3535,1.3526,1.3526,1.3506,1.3501,1.3509,1.3509,1.3509,0,1.3894,1.388,1.3844,1.383,1.3814,1.3792,1.3775,1.375,1.3733,1.3699,1.3687,1.3658,1.3633,1.3589,1.3561,1.3532,1.3524,1.3519,1.352,1.3525,1.3522,1.3522,1.3519,1.3519,1.3519,1.3519,1.3519,0,1.3893,1.3882,1.3859,1.3832,1.3812,1.379,1.3766,1.3755,1.3724,1.3706,1.3677,1.3658,1.3619,1.3589,1.3556,1.3537,1.3522,1.3519,1.3515,1.3521,1.3529,1.3522,1.3537,1.352,1.352,1.352,1.352,1.352,1.3896,1.3882,1.3853,1.3828,1.3807,1.3785,1.3768,1.3746,1.3722,1.3689,1.3675,1.3645,1.3614,1.3568,1.3549,1.3523,1.352,1.3515,1.3513,1.3512,1.3512,1.3534,1.3518,1.3518,1.3517,1.3517,1.3517,0,1.3892,1.3873,1.385,1.3817,1.3796,1.3785,1.3757,1.374,1.3714,1.3688,1.3663,1.3628,1.3598,1.3568,1.3536,1.3521,1.3513,1.3513,1.3513,1.3508,1.3518,1.3524,1.352,1.352,1.352,1.352,1.352,1.352,1.3888,1.3863,1.3848,1.3811,1.3791,1.3762,1.3747,1.3725,1.3703,1.3666,1.3641,1.3621,1.3592,1.3557,1.3528,1.352,1.3508,1.3509,1.3499,1.3508,1.3508,1.3508,1.3513,1.3507,1.3507,1.3491,1.3491,1.3491]}]]